Location: St. Louis
(38.6270°N, 90.1994°W)
Time: 08:38:34
(UTC-06:00)

Vanguard 2 Rocket - Pass Details

Date: 03 December 2021
Orbit: 553 x 3325 km, 32.9° (Epoch: 22 January)

Event Time Altitude Azimuth Distance (km) Brightness Sun altitude
Rises 00:19:51 0° 276° (W) 5,354 - -72.4°
Reaches altitude 10° 00:23:23 10° 267° (W) 4,711 - -72.1°
Maximum altitude 00:35:28 34° 210° (SSW) 4,039 - -70.9°
Drops below altitude 10° 00:51:43 10° 155° (SSE) 6,262 - -69.0°
Exits shadow 00:54:02 - 152° (SSE) 6,673 11.2 -68.6°
Sets 00:57:29 0° 147° (SSE) 7,288 11.5 -68.2°
